Flag for Poland Weather past 2 weeks in Kalisz, Poland

Now
31 °F

Fog.


Feels Like: 28 °F
Forecast: 31 / 45 °F
Wind: 3 mph from Northwest

Location: Kalisz

Current Time: Mar 5, 2015 at 11:55:04 PM

Latest Report: Mar 5, 2015 at 11:00 PM


Visibility: 4 mi

Pressure: 30.53 "Hg

Humidity: 88%

Dew point: 28 °F

Location of KaliszLocation

Historic Weather in Kalisz — Graph

°F

Kalisz temperature yesterday

Maximum temperature yesterday: 41 °F (at 3:00 PM)
Minimum temperature yesterday: 35 °F (at 8:00 PM)
Average temperature yesterday: 38 °F

Past Weeks' High & Low Weather Summary

 TemperatureHumidityPressure
High49 °F (Feb 21, 3:00 PM)97% (Feb 23, 5:00 AM)30.59 "Hg (Feb 23, 5:00 AM)
Low28 °F (Feb 20, 7:00 AM)40% (Feb 21, 2:00 PM)29.44 "Hg (Mar 2, 11:00 AM)
Average39 °F79%29.96 "Hg
* Reported Feb 18 10:00 PM — Mar 5 10:00 PM, Kalisz, Weather by CustomWeather, © 2015

Note: Actual official high and low records may vary slightly from our data, if they occured in-between our weather recording intervals... More about our weather records

Advertising

Kalisz weather history for previous 24 hours

 ConditionsComfort  
Time TempWeatherWind HumidityBarometerVisibility
10:00 PM
Thu, Mar 5
32 °FFog.3 mph82%30.51 "Hg5 mi
9:00 PM33 °FFog.3 mph81%30.50 "Hg5 mi
8:00 PM34 °FFog.3 mph83%30.48 "Hg5 mi
7:00 PM35 °FOvercast.2 mph81%30.46 "Hg6 mi
6:00 PM35 °FOvercast.2 mph81%30.45 "Hg7 mi
5:00 PM38 °FPassing clouds.2 mph68%30.43 "Hg9 mi
4:00 PM38 °FPartly sunny.5 mph67%30.43 "Hg19 mi
3:00 PM39 °FOvercast.5 mph78%30.42 "Hg11 mi
2:00 PM38 °FOvercast.6 mph82%30.41 "Hg7 mi
1:00 PM38 °FOvercast.3 mph85%30.40 "Hg6 mi
12:00 PM39 °FOvercast.5 mph79%30.39 "Hg7 mi
11:00 AM37 °FOvercast.6 mph84%30.38 "Hg6 mi
10:00 AM37 °FPartly sunny.5 mph86%30.36 "Hg6 mi
9:00 AM35 °FOvercast.5 mph88%30.36 "Hg6 mi
8:00 AM34 °FOvercast.2 mph89%30.36 "Hg6 mi
7:00 AM34 °FOvercast.3 mph87%30.33 "Hg7 mi
6:00 AM32 °FFog.2 mph93%30.32 "Hg2 mi
5:00 AM33 °FOvercast.3 mph91%30.31 "Hg7 mi
3:00 AM34 °FPassing clouds.3 mph82%30.28 "Hg9 mi
2:00 AM34 °FOvercast.3 mph83%30.28 "Hg9 mi
1:00 AM34 °FOvercast.2 mph82%30.27 "Hg7 mi
12:00 AM34 °FPassing clouds.1 mph81%30.27 "Hg7 mi
11:00 PM
Wed, Mar 4
35 °FOvercast.2 mph81%30.25 "Hg7 mi
Weather by CustomWeather, © 2015

See weather overviewHow to use our weather pages